| time (UTC) | temp C | wind direction | speed KPH | gust KPH | rain 1hr cm | rain 24hr cm | rain mn cm | humidity % | barometer mb |
| 20260507033635 | 12 | 228 | 3.2 | 3.2 | 0.00 | 0.00 | 0.00 | 85 | 1021.9 |
| 20260507033132 | 12 | 218 | 1.6 | 4.8 | 0.00 | 0.00 | 0.00 | 85 | 1021.8 |
| 20260507032629 | 12 | 245 | 1.6 | 4.8 | 0.00 | 0.00 | 0.00 | 84 | 1021.7 |
| 20260507032125 | 13 | 230 | 1.6 | 9.7 | 0.00 | 0.00 | 0.00 | 84 | 1021.7 |
| 20260507031622 | 13 | 216 | 1.6 | 8.0 | 0.00 | 0.00 | 0.00 | 84 | 1021.5 |
| 20260507031118 | 13 | 208 | 3.2 | 4.8 | 0.00 | 0.00 | 0.00 | 84 | 1021.5 |
| 20260507030615 | 13 | 227 | 0.0 | 4.8 | 0.00 | 0.00 | 0.00 | 83 | 1021.5 |
| 20260507030113 | 13 | 223 | 0.0 | 4.8 | 0.00 | 0.00 | 0.00 | 83 | 1021.3 |
| 20260507025610 | 13 | 217 | 1.6 | 3.2 | 0.00 | 0.00 | 0.00 | 83 | 1021.4 |
| 20260507025107 | 13 | 214 | 0.0 | 3.2 | 0.00 | 0.00 | 0.00 | 82 | 1021.4 |
| 20260507024605 | 13 | 225 | 3.2 | 8.0 | 0.00 | 0.00 | 0.00 | 81 | 1021.3 |
| 20260507024102 | 13 | 226 | 3.2 | 8.0 | 0.00 | 0.00 | 0.00 | 82 | 1021.2 |
| 20260507023557 | 13 | 213 | 0.0 | 3.2 | 0.00 | 0.00 | 0.00 | 82 | 1021.4 |
| 20260507023055 | 13 | 227 | 1.6 | 4.8 | 0.00 | 0.00 | 0.00 | 81 | 1021.5 |
| 20260507022552 | 13 | 228 | 1.6 | 4.8 | 0.00 | 0.00 | 0.00 | 82 | 1021.5 |
| 20260507022046 | 13 | 226 | 1.6 | 3.2 | 0.00 | 0.00 | 0.00 | 81 | 1021.3 |
| 20260507021543 | 13 | 223 | 1.6 | 3.2 | 0.00 | 0.00 | 0.00 | 81 | 1021.0 |
| 20260507021040 | 13 | 217 | 0.0 | 3.2 | 0.00 | 0.00 | 0.00 | 81 | 1021.1 |
| 20260507020538 | 13 | 220 | 1.6 | 1.6 | 0.00 | 0.00 | 0.00 | 80 | 1021.1 |
| 20260507020034 | 13 | 216 | 1.6 | 4.8 | 0.00 | 0.00 | 0.00 | 81 | 1021.5 |
| 20260507015532 | 13 | 233 | 3.2 | 4.8 | 0.00 | 0.00 | 0.00 | 81 | 1021.3 |
| 20260507015029 | 13 | 220 | 1.6 | 3.2 | 0.00 | 0.00 | 0.00 | 82 | 1021.2 |
| 20260507014526 | 13 | 223 | 1.6 | 4.8 | 0.00 | 0.00 | 0.00 | 81 | 1021.6 |
| 20260507014021 | 13 | 213 | 1.6 | 3.2 | 0.00 | 0.00 | 0.00 | 81 | 1021.3 |
| 20260507013518 | 13 | 236 | 4.8 | 4.8 | 0.00 | 0.00 | 0.00 | 81 | 1021.5 |
| 20260507013016 | 13 | 215 | 3.2 | 8.0 | 0.00 | 0.00 | 0.00 | 81 | 1021.2 |
| 20260507012513 | 13 | 214 | 3.2 | 4.8 | 0.00 | 0.00 | 0.00 | 80 | 1021.3 |
| 20260507012009 | 13 | 211 | 1.6 | 3.2 | 0.00 | 0.00 | 0.00 | 80 | 1021.5 |
| 20260507011506 | 13 | 222 | 0.0 | 3.2 | 0.00 | 0.00 | 0.00 | 81 | 1021.4 |
| 20260507011002 | 13 | 230 | 1.6 | 4.8 | 0.00 | 0.00 | 0.00 | 81 | 1021.4 |
| 20260507010456 | 13 | 236 | 4.8 | 8.0 | 0.00 | 0.00 | 0.00 | 81 | 1021.5 |
| 20260507005954 | 13 | 238 | 3.2 | 8.0 | 0.00 | 0.00 | 0.00 | 81 | 1021.4 |
| 20260507005451 | 13 | 234 | 4.8 | 8.0 | 0.00 | 0.00 | 0.00 | 81 | 1021.5 |
| 20260507004947 | 13 | 209 | 1.6 | 4.8 | 0.00 | 0.00 | 0.00 | 81 | 1021.5 |
| 20260507004444 | 13 | 234 | 1.6 | 8.0 | 0.00 | 0.00 | 0.00 | 81 | 1021.6 |
| 20260507003942 | 13 | 216 | 3.2 | 4.8 | 0.00 | 0.00 | 0.00 | 80 | 1021.5 |
| 20260507003437 | 13 | 249 | 1.6 | 4.8 | 0.00 | 0.00 | 0.00 | 80 | 1021.4 |
| 20260507002932 | 13 | 220 | 4.8 | 9.7 | 0.00 | 0.00 | 0.00 | 79 | 1021.5 |
| 20260507002428 | 13 | 220 | 1.6 | 4.8 | 0.00 | 0.00 | 0.00 | 80 | 1021.4 |
| 20260507001926 | 13 | 240 | 1.6 | 8.0 | 0.00 | 0.00 | 0.00 | 80 | 1021.3 |
| 20260507001422 | 13 | 216 | 1.6 | 8.0 | 0.00 | 0.00 | 0.00 | 81 | 1021.4 |
| 20260507000920 | 13 | 220 | 1.6 | 4.8 | 0.00 | 0.00 | 0.00 | 80 | 1021.6 |
| 20260507000415 | 13 | 209 | 3.2 | 8.0 | 0.00 | 0.00 | 0.00 | 80 | 1021.6 |
| 20260506235911 | 13 | 248 | 4.8 | 11.3 | 0.00 | 0.00 | 0.00 | 80 | 1021.4 |
| 20260506235409 | 13 | 210 | 4.8 | 4.8 | 0.00 | 0.00 | 0.00 | 80 | 1021.6 |
| 20260506234904 | 13 | 215 | 4.8 | 9.7 | 0.00 | 0.00 | 0.00 | 80 | 1021.8 |
| 20260506234402 | 13 | 234 | 1.6 | 11.3 | 0.00 | 0.00 | 0.00 | 80 | 1021.5 |
| 20260506233900 | 13 | 251 | 6.4 | 9.7 | 0.00 | 0.00 | 0.00 | 79 | 1021.5 |
| 20260506233355 | 13 | 273 | 6.4 | 9.7 | 0.00 | 0.00 | 0.00 | 78 | 1021.5 |
| 20260506232852 | 14 | 216 | 3.2 | 11.3 | 0.00 | 0.00 | 0.00 | 78 | 1021.5 |
| 20260506232348 | 14 | 208 | 4.8 | 8.0 | 0.00 | 0.00 | 0.00 | 77 | 1021.5 |
| 20260506231844 | 13 | 249 | 3.2 | 4.8 | 0.00 | 0.00 | 0.00 | 78 | 1021.6 |
| 20260506231342 | 13 | 238 | 1.6 | 3.2 | 0.00 | 0.00 | 0.00 | 78 | 1021.5 |
| 20260506230840 | 13 | 217 | 3.2 | 3.2 | 0.00 | 0.00 | 0.00 | 78 | 1021.6 |
| 20260506230336 | 13 | 210 | 3.2 | 8.0 | 0.00 | 0.00 | 0.00 | 78 | 1021.6 |
| 20260506225832 | 13 | 219 | 1.6 | 8.0 | 0.00 | 0.00 | 0.00 | 77 | 1021.6 |
| 20260506225330 | 13 | 213 | 0.0 | 8.0 | 0.00 | 0.00 | 0.00 | 79 | 1021.5 |
| 20260506224827 | 13 | 237 | 1.6 | 8.0 | 0.00 | 0.00 | 0.00 | 79 | 1021.7 |
| 20260506224324 | 13 | 209 | 3.2 | 3.2 | 0.00 | 0.00 | 0.00 | 79 | 1021.6 |
| 20260506223820 | 13 | 215 | 6.4 | 9.7 | 0.00 | 0.00 | 0.00 | 78 | 1021.6 |
| 20260506223315 | 13 | 212 | 1.6 | 3.2 | 0.00 | 0.00 | 0.00 | 81 | 1021.7 |
| 20260506222812 | 13 | 218 | 4.8 | 9.7 | 0.00 | 0.00 | 0.00 | 80 | 1021.7 |
| 20260506222308 | 13 | 237 | 6.4 | 8.0 | 0.00 | 0.00 | 0.00 | 80 | 1021.9 |
| 20260506221801 | 13 | 219 | 4.8 | 9.7 | 0.00 | 0.00 | 0.00 | 81 | 1022.0 |
| 20260506221258 | 13 | 231 | 4.8 | 8.0 | 0.00 | 0.00 | 0.00 | 80 | 1021.8 |
| 20260506220755 | 13 | 245 | 4.8 | 9.7 | 0.00 | 0.00 | 0.00 | 80 | 1021.7 |
| 20260506220250 | 13 | 220 | 1.6 | 8.0 | 0.00 | 0.00 | 0.00 | 80 | 1021.9 |
| 20260506215747 | 13 | 224 | 3.2 | 8.0 | 0.00 | 0.00 | 0.00 | 80 | 1021.8 |
| 20260506215242 | 13 | 213 | 1.6 | 3.2 | 0.00 | 0.00 | 0.00 | 79 | 1021.8 |
| 20260506214733 | 13 | 221 | 1.6 | 3.2 | 0.00 | 0.00 | 0.00 | 80 | 1021.8 |
| 20260506214231 | 13 | 234 | 6.4 | 9.7 | 0.00 | 0.00 | 0.00 | 80 | 1021.9 |
| 20260506213729 | 13 | 227 | 3.2 | 9.7 | 0.00 | 0.00 | 0.00 | 80 | 1021.8 |
| 20260506213225 | 13 | 211 | 4.8 | 4.8 | 0.00 | 0.00 | 0.00 | 80 | 1022.0 |
| 20260506212717 | 13 | 215 | 1.6 | 4.8 | 0.00 | 0.00 | 0.00 | 81 | 1022.0 |
| 20260506212212 | 13 | 207 | 1.6 | 4.8 | 0.00 | 0.00 | 0.00 | 80 | 1021.8 |
| 20260506211708 | 13 | 221 | 3.2 | 8.0 | 0.00 | 0.00 | 0.00 | 81 | 1021.8 |
| 20260506211204 | 13 | 215 | 1.6 | 4.8 | 0.00 | 0.00 | 0.00 | 81 | 1021.8 |
| 20260506210702 | 13 | 244 | 1.6 | 8.0 | 0.00 | 0.00 | 0.00 | 81 | 1021.9 |
| 20260506210158 | 13 | 237 | 4.8 | 4.8 | 0.00 | 0.00 | 0.00 | 81 | 1021.7 |
| 20260506205655 | 13 | 217 | 0.0 | 0.0 | 0.00 | 0.00 | 0.00 | 81 | 1022.0 |
| 20260506205150 | 13 | 219 | 1.6 | 3.2 | 0.00 | 0.00 | 0.00 | 81 | 1022.0 |
| 20260506204648 | 13 | 225 | 1.6 | 1.6 | 0.00 | 0.00 | 0.00 | 81 | 1021.8 |
| 20260506204145 | 13 | 219 | 1.6 | 3.2 | 0.00 | 0.00 | 0.00 | 81 | 1021.8 |
| 20260506203643 | 13 | 218 | 1.6 | 3.2 | 0.00 | 0.00 | 0.00 | 81 | 1021.9 |
| 20260506203140 | 13 | 218 | 0.0 | 4.8 | 0.00 | 0.00 | 0.00 | 81 | 1021.9 |
| 20260506202638 | 13 | 221 | 1.6 | 3.2 | 0.00 | 0.00 | 0.00 | 82 | 1021.7 |
| 20260506202133 | 13 | 218 | 1.6 | 3.2 | 0.00 | 0.00 | 0.00 | 83 | 1021.8 |
| 20260506201631 | 13 | 214 | 1.6 | 3.2 | 0.00 | 0.00 | 0.00 | 83 | 1021.8 |
| 20260506201127 | 13 | 214 | 1.6 | 3.2 | 0.00 | 0.00 | 0.00 | 82 | 1021.7 |
| 20260506200624 | 13 | 214 | 1.6 | 4.8 | 0.00 | 0.00 | 0.00 | 83 | 1021.8 |
| 20260506200120 | 12 | 213 | 0.0 | 3.2 | 0.00 | 0.00 | 0.00 | 84 | 1021.6 |
| 20260506195617 | 12 | 221 | 1.6 | 3.2 | 0.00 | 0.00 | 0.00 | 84 | 1021.7 |
| 20260506195114 | 12 | 213 | 0.0 | 3.2 | 0.00 | 0.00 | 0.00 | 85 | 1021.7 |
| 20260506194611 | 12 | 212 | 0.0 | 1.6 | 0.00 | 0.00 | 0.00 | 85 | 1021.8 |
| 20260506194107 | 12 | 218 | 3.2 | 4.8 | 0.00 | 0.00 | 0.00 | 84 | 1021.8 |
| 20260506193605 | 12 | 232 | 3.2 | 9.7 | 0.00 | 0.00 | 0.00 | 85 | 1021.6 |
| 20260506193102 | 12 | 213 | 0.0 | 3.2 | 0.00 | 0.00 | 0.00 | 85 | 1021.5 |
| 20260506192559 | 12 | 226 | 1.6 | 8.0 | 0.00 | 0.00 | 0.00 | 85 | 1021.5 |
| 20260506192055 | 13 | 220 | 3.2 | 3.2 | 0.00 | 0.00 | 0.00 | 87 | 1021.5 |
| 20260506191551 | 13 | 212 | 3.2 | 3.2 | 0.00 | 0.00 | 0.00 | 87 | 1021.6 |
| 20260506191047 | 12 | 212 | 0.0 | 4.8 | 0.00 | 0.00 | 0.00 | 88 | 1021.6 |
| 20260506190545 | 12 | 211 | 0.0 | 4.8 | 0.00 | 0.00 | 0.00 | 88 | 1021.6 |
| 20260506190042 | 12 | 218 | 3.2 | 4.8 | 0.00 | 0.00 | 0.00 | 88 | 1021.5 |
| 20260506185539 | 12 | 216 | 0.0 | 3.2 | 0.00 | 0.00 | 0.00 | 89 | 1021.5 |
| 20260506185036 | 12 | 233 | 1.6 | 3.2 | 0.00 | 0.00 | 0.00 | 89 | 1021.5 |
| 20260506184533 | 12 | 228 | 1.6 | 4.8 | 0.00 | 0.00 | 0.00 | 89 | 1021.5 |
| 20260506184030 | 12 | 210 | 4.8 | 8.0 | 0.00 | 0.00 | 0.00 | 89 | 1021.4 |
| 20260506183526 | 12 | 214 | 3.2 | 4.8 | 0.00 | 0.00 | 0.00 | 89 | 1021.5 |
| 20260506183023 | 12 | 218 | 3.2 | 8.0 | 0.00 | 0.00 | 0.00 | 89 | 1021.5 |
| 20260506182520 | 12 | 216 | 1.6 | 4.8 | 0.00 | 0.00 | 0.00 | 89 | 1021.6 |
| 20260506182017 | 12 | 216 | 1.6 | 4.8 | 0.00 | 0.00 | 0.00 | 89 | 1021.5 |
| 20260506181515 | 12 | 217 | 0.0 | 4.8 | 0.00 | 0.00 | 0.00 | 89 | 1021.4 |
| 20260506181012 | 12 | 217 | 1.6 | 3.2 | 0.00 | 0.00 | 0.00 | 90 | 1021.2 |
| 20260506180508 | 12 | 215 | 0.0 | 4.8 | 0.00 | 0.00 | 0.00 | 90 | 1021.1 |
| 20260506180006 | 12 | 224 | 1.6 | 3.2 | 0.00 | 0.00 | 0.00 | 90 | 1021.0 |
| 20260506175501 | 12 | 221 | 3.2 | 8.0 | 0.00 | 0.00 | 0.00 | 89 | 1021.6 |
| 20260506174958 | 12 | 210 | 0.0 | 4.8 | 0.00 | 0.00 | 0.00 | 91 | 1021.2 |
| 20260506174456 | 12 | 214 | 1.6 | 8.0 | 0.00 | 0.00 | 0.00 | 91 | 1021.0 |
| 20260506173952 | 12 | 213 | 1.6 | 3.2 | 0.00 | 0.00 | 0.00 | 93 | 1021.2 |
| 20260506173450 | 12 | 207 | 0.0 | 0.0 | 0.00 | 0.00 | 0.00 | 93 | 1021.4 |
| 20260506172946 | 12 | 212 | 0.0 | 4.8 | 0.00 | 0.00 | 0.00 | 94 | 1021.3 |
| 20260506172444 | 12 | 218 | 3.2 | 4.8 | 0.00 | 0.00 | 0.00 | 94 | 1021.3 |
| 20260506171940 | 12 | 213 | 0.0 | 1.6 | 0.00 | 0.00 | 0.00 | 94 | 1021.5 |
| 20260506171438 | 12 | 212 | 1.6 | 4.8 | 0.00 | 0.00 | 0.00 | 95 | 1021.3 |
| 20260506170935 | 11 | 210 | 1.6 | 3.2 | 0.00 | 0.00 | 0.00 | 95 | 1021.4 |
| 20260506170431 | 11 | 215 | 4.8 | 8.0 | 0.00 | 0.00 | 0.00 | 95 | 1021.5 |
| 20260506165925 | 11 | 211 | 0.0 | 3.2 | 0.00 | 0.00 | 0.00 | 96 | 1021.2 |
| 20260506165423 | 11 | 224 | 0.0 | 8.0 | 0.00 | 0.00 | 0.00 | 96 | 1021.3 |
| 20260506164919 | 11 | 208 | 0.0 | 4.8 | 0.00 | 0.00 | 0.00 | 96 | 1021.1 |
| 20260506164415 | 11 | 212 | 1.6 | 4.8 | 0.00 | 0.00 | 0.00 | 97 | 1021.2 |
| 20260506163913 | 11 | 211 | 0.0 | 3.2 | 0.00 | 0.00 | 0.00 | 97 | 1021.0 |
| 20260506163407 | 11 | 221 | 4.8 | 8.0 | 0.00 | 0.00 | 0.00 | 98 | 1021.1 |
| 20260506162902 | 11 | 222 | 0.0 | 3.2 | 0.00 | 0.00 | 0.00 | 98 | 1020.9 |
| 20260506162400 | 11 | 209 | 1.6 | 4.8 | 0.00 | 0.00 | 0.00 | 98 | 1020.8 |
| 20260506161852 | 11 | 214 | 0.0 | 1.6 | 0.00 | 0.00 | 0.00 | 99 | 1020.6 |
| 20260506161349 | 11 | 213 | 0.0 | 1.6 | 0.00 | 0.00 | 0.00 | 99 | 1020.4 |
| 20260506160842 | 11 | 213 | 1.6 | 3.2 | 0.00 | 0.00 | 0.00 | 99 | 1020.8 |
| 20260506160339 | 11 | 222 | 0.0 | 1.6 | 0.00 | 0.00 | 0.00 | 99 | 1020.7 |
| 20260506155837 | 11 | 216 | 1.6 | 8.0 | 0.00 | 0.00 | 0.00 | 99 | 1021.0 |
| 20260506155333 | 11 | 232 | 1.6 | 4.8 | 0.00 | 0.00 | 0.00 | 99 | 1020.9 |
| 20260506153450 | 11 | 233 | 0.0 | 1.6 | 0.00 | 0.00 | 0.00 | 99 | 1021.0 |
| 20260506152948 | 11 | 212 | 1.6 | 3.2 | 0.00 | 0.00 | 0.00 | 99 | 1021.1 |
| 20260506152445 | 11 | 209 | 0.0 | 4.8 | 0.00 | 0.00 | 0.00 | 98 | 1020.8 |
| 20260506151943 | 11 | 207 | 0.0 | 9.7 | 0.00 | 0.00 | 0.00 | 98 | 1021.0 |
| 20260506151440 | 11 | 216 | 0.0 | 1.6 | 0.00 | 0.00 | 0.00 | 99 | 1020.8 |
| 20260506150938 | 11 | 214 | 1.6 | 3.2 | 0.00 | 0.00 | 0.00 | 98 | 1020.6 |
| 20260506150433 | 11 | 212 | 0.0 | 0.0 | 0.00 | 0.00 | 0.00 | 98 | 1020.5 |
| 20260506145931 | 11 | 211 | 1.6 | 4.8 | 0.00 | 0.00 | 0.00 | 98 | 1020.5 |
| 20260506145427 | 11 | 212 | 0.0 | 0.0 | 0.00 | 0.00 | 0.00 | 98 | 1020.8 |
| 20260506144925 | 11 | 210 | 0.0 | 3.2 | 0.00 | 0.00 | 0.00 | 98 | 1020.9 |
| 20260506144421 | 11 | 214 | 0.0 | 3.2 | 0.00 | 0.00 | 0.00 | 98 | 1020.8 |
| 20260506143920 | 11 | 208 | 1.6 | 3.2 | 0.00 | 0.00 | 0.00 | 98 | 1020.8 |
| 20260506143416 | 11 | 216 | 1.6 | 1.6 | 0.00 | 0.00 | 0.00 | 97 | 1020.7 |
| 20260506142914 | 11 | 217 | 1.6 | 3.2 | 0.00 | 0.00 | 0.00 | 97 | 1020.7 |
| 20260506142412 | 11 | 219 | 0.0 | 1.6 | 0.00 | 0.00 | 0.00 | 97 | 1020.5 |
| 20260506141910 | 11 | 214 | 1.6 | 3.2 | 0.00 | 0.00 | 0.00 | 96 | 1020.5 |
| 20260506141408 | 11 | 216 | 0.0 | 1.6 | 0.00 | 0.00 | 0.00 | 96 | 1020.4 |
| 20260506140906 | 11 | 212 | 0.0 | 0.0 | 0.00 | 0.00 | 0.00 | 96 | 1020.3 |
| 20260506140402 | 11 | 212 | 0.0 | 1.6 | 0.00 | 0.00 | 0.00 | 95 | 1020.6 |
| 20260506135900 | 12 | 215 | 0.0 | 1.6 | 0.00 | 0.00 | 0.00 | 95 | 1020.4 |
| 20260506135356 | 12 | 224 | 3.2 | 3.2 | 0.00 | 0.00 | 0.00 | 94 | 1020.7 |
| 20260506134852 | 12 | 212 | 1.6 | 3.2 | 0.00 | 0.00 | 0.00 | 94 | 1020.6 |
| 20260506134349 | 12 | 213 | 1.6 | 4.8 | 0.00 | 0.00 | 0.00 | 94 | 1020.4 |
| 20260506133846 | 11 | 234 | 3.2 | 4.8 | 0.00 | 0.00 | 0.00 | 94 | 1020.4 |
| 20260506133342 | 11 | 214 | 0.0 | 0.0 | 0.00 | 0.00 | 0.00 | 94 | 1020.5 |
| 20260506132839 | 11 | 212 | 0.0 | 0.0 | 0.00 | 0.00 | 0.00 | 94 | 1020.3 |
| 20260506132336 | 11 | 210 | 1.6 | 3.2 | 0.00 | 0.00 | 0.00 | 94 | 1020.4 |
| 20260506131835 | 11 | 210 | 0.0 | 3.2 | 0.00 | 0.00 | 0.00 | 94 | 1020.4 |
| 20260506131330 | 11 | 210 | 0.0 | 0.0 | 0.00 | 0.00 | 0.00 | 94 | 1020.0 |
| 20260506130828 | 11 | 210 | 0.0 | 0.0 | 0.00 | 0.00 | 0.00 | 94 | 1019.9 |
| 20260506130324 | 11 | 210 | 0.0 | 0.0 | 0.00 | 0.00 | 0.00 | 94 | 1020.1 |
| 20260506125822 | 11 | 211 | 0.0 | 0.0 | 0.00 | 0.00 | 0.00 | 94 | 1020.1 |
| 20260506125320 | 11 | 216 | 0.0 | 1.6 | 0.00 | 0.00 | 0.00 | 94 | 1020.2 |
| 20260506124818 | 11 | 213 | 0.0 | 0.0 | 0.00 | 0.00 | 0.00 | 94 | 1019.9 |
| 20260506124315 | 11 | 213 | 0.0 | 0.0 | 0.00 | 0.00 | 0.00 | 94 | 1020.0 |
| 20260506123813 | 11 | 212 | 0.0 | 0.0 | 0.00 | 0.00 | 0.00 | 94 | 1020.0 |
| 20260506123311 | 11 | 212 | 0.0 | 0.0 | 0.00 | 0.00 | 0.00 | 94 | 1020.0 |
| 20260506122808 | 11 | 211 | 0.0 | 0.0 | 0.00 | 0.00 | 0.00 | 94 | 1019.8 |
| 20260506122306 | 11 | 212 | 0.0 | 1.6 | 0.00 | 0.00 | 0.00 | 94 | 1019.9 |
| 20260506121803 | 11 | 210 | 0.0 | 1.6 | 0.00 | 0.00 | 0.00 | 93 | 1019.8 |
| 20260506121259 | 11 | 213 | 0.0 | 0.0 | 0.00 | 0.00 | 0.00 | 93 | 1019.7 |
| 20260506120757 | 11 | 215 | 1.6 | 1.6 | 0.00 | 0.00 | 0.00 | 93 | 1019.9 |
| 20260506120254 | 11 | 213 | 0.0 | 1.6 | 0.00 | 0.00 | 0.00 | 92 | 1019.7 |
| 20260506115752 | 11 | 215 | 1.6 | 3.2 | 0.00 | 0.00 | 0.00 | 92 | 1019.8 |
| 20260506115250 | 11 | 212 | 0.0 | 0.0 | 0.00 | 0.00 | 0.00 | 91 | 1019.6 |
| 20260506114747 | 11 | 217 | 0.0 | 0.0 | 0.00 | 0.00 | 0.00 | 91 | 1019.6 |
| 20260506114245 | 11 | 216 | 0.0 | 3.2 | 0.00 | 0.00 | 0.00 | 91 | 1019.6 |
| 20260506113743 | 11 | 235 | 1.6 | 3.2 | 0.00 | 0.00 | 0.00 | 91 | 1019.7 |
| 20260506113240 | 12 | 213 | 0.0 | 1.6 | 0.00 | 0.00 | 0.00 | 91 | 1019.6 |
| 20260506112736 | 12 | 216 | 1.6 | 4.8 | 0.00 | 0.00 | 0.00 | 90 | 1019.6 |
| 20260506112234 | 12 | 215 | 1.6 | 4.8 | 0.00 | 0.00 | 0.00 | 90 | 1019.6 |
| 20260506111731 | 12 | 230 | 1.6 | 3.2 | 0.00 | 0.00 | 0.00 | 90 | 1019.5 |
| 20260506111230 | 12 | 217 | 3.2 | 8.0 | 0.00 | 0.00 | 0.00 | 89 | 1019.5 |
| 20260506110726 | 12 | 216 | 1.6 | 8.0 | 0.00 | 0.00 | 0.00 | 89 | 1019.6 |
| 20260506110224 | 12 | 220 | 4.8 | 4.8 | 0.00 | 0.00 | 0.00 | 89 | 1019.3 |
| 20260506105720 | 12 | 216 | 1.6 | 3.2 | 0.00 | 0.00 | 0.00 | 89 | 1019.5 |
| 20260506105217 | 12 | 222 | 0.0 | 0.0 | 0.00 | 0.00 | 0.00 | 89 | 1019.5 |
| 20260506104715 | 12 | 210 | 0.0 | 3.2 | 0.00 | 0.00 | 0.00 | 89 | 1019.3 |
| 20260506104213 | 12 | 216 | 1.6 | 3.2 | 0.00 | 0.00 | 0.00 | 89 | 1019.2 |
| 20260506103709 | 12 | 216 | 0.0 | 0.0 | 0.00 | 0.00 | 0.00 | 90 | 1019.3 |
| 20260506103206 | 12 | 218 | 1.6 | 1.6 | 0.00 | 0.00 | 0.00 | 89 | 1019.0 |
| 20260506102705 | 12 | 219 | 1.6 | 1.6 | 0.00 | 0.00 | 0.00 | 89 | 1019.3 |
| 20260506102202 | 12 | 219 | 3.2 | 4.8 | 0.00 | 0.00 | 0.00 | 89 | 1019.3 |
| 20260506101659 | 12 | 217 | 1.6 | 1.6 | 0.00 | 0.00 | 0.00 | 89 | 1019.2 |
| 20260506101155 | 12 | 217 | 1.6 | 1.6 | 0.00 | 0.00 | 0.00 | 89 | 1019.3 |
| 20260506100654 | 12 | 218 | 1.6 | 4.8 | 0.00 | 0.00 | 0.00 | 89 | 1019.3 |
| 20260506100151 | 12 | 216 | 1.6 | 1.6 | 0.00 | 0.00 | 0.00 | 89 | 1019.1 |
| 20260506095650 | 12 | 208 | 1.6 | 1.6 | 0.00 | 0.00 | 0.00 | 89 | 1018.9 |
| 20260506095146 | 12 | 213 | 0.0 | 1.6 | 0.00 | 0.00 | 0.00 | 89 | 1018.8 |
| 20260506094643 | 12 | 210 | 1.6 | 1.6 | 0.00 | 0.00 | 0.00 | 89 | 1018.7 |
| 20260506094141 | 12 | 211 | 1.6 | 4.8 | 0.00 | 0.00 | 0.00 | 88 | 1018.9 |
| 20260506093640 | 12 | 215 | 4.8 | 4.8 | 0.00 | 0.00 | 0.00 | 88 | 1018.8 |
| 20260506093136 | 12 | 227 | 1.6 | 3.2 | 0.00 | 0.00 | 0.00 | 88 | 1018.9 |
| 20260506092634 | 12 | 219 | 1.6 | 3.2 | 0.00 | 0.00 | 0.00 | 88 | 1018.8 |
| 20260506092131 | 12 | 214 | 0.0 | 3.2 | 0.00 | 0.00 | 0.00 | 88 | 1018.8 |
| 20260506091629 | 12 | 216 | 1.6 | 8.0 | 0.00 | 0.00 | 0.00 | 89 | 1018.7 |
| 20260506091126 | 12 | 218 | 1.6 | 3.2 | 0.00 | 0.00 | 0.00 | 88 | 1018.7 |
| 20260506090624 | 12 | 224 | 1.6 | 4.8 | 0.00 | 0.00 | 0.00 | 88 | 1018.7 |
| 20260506090120 | 12 | 211 | 0.0 | 3.2 | 0.00 | 0.00 | 0.00 | 88 | 1018.8 |
| 20260506085617 | 12 | 215 | 0.0 | 1.6 | 0.00 | 0.00 | 0.00 | 89 | 1018.6 |
| 20260506085114 | 12 | 209 | 0.0 | 8.0 | 0.00 | 0.00 | 0.00 | 89 | 1018.6 |
| 20260506084610 | 12 | 211 | 0.0 | 1.6 | 0.00 | 0.00 | 0.00 | 90 | 1018.6 |
| 20260506084107 | 12 | 216 | 0.0 | 0.0 | 0.00 | 0.00 | 0.00 | 90 | 1018.5 |
| 20260506083604 | 12 | 215 | 0.0 | 8.0 | 0.00 | 0.00 | 0.00 | 90 | 1018.4 |
| 20260506083102 | 12 | 210 | 0.0 | 0.0 | 0.00 | 0.00 | 0.00 | 90 | 1018.4 |
| 20260506082558 | 12 | 213 | 0.0 | 1.6 | 0.00 | 0.00 | 0.00 | 90 | 1018.4 |
| 20260506082054 | 12 | 214 | 0.0 | 0.0 | 0.00 | 0.00 | 0.00 | 90 | 1018.4 |
| 20260506081552 | 12 | 210 | 0.0 | 0.0 | 0.00 | 0.00 | 0.00 | 91 | 1018.3 |
| 20260506081049 | 12 | 211 | 0.0 | 1.6 | 0.00 | 0.00 | 0.00 | 91 | 1018.3 |
| 20260506080547 | 12 | 209 | 0.0 | 0.0 | 0.00 | 0.00 | 0.00 | 91 | 1018.4 |
| 20260506073027 | 12 | 213 | 0.0 | 0.0 | 0.00 | 0.00 | 0.00 | 91 | 1018.1 |
| 20260506072524 | 12 | 213 | 0.0 | 0.0 | 0.00 | 0.00 | 0.00 | 91 | 1018.2 |
| 20260506072022 | 12 | 213 | 0.0 | 0.0 | 0.00 | 0.00 | 0.00 | 91 | 1018.2 |
| 20260506071520 | 12 | 213 | 0.0 | 0.0 | 0.00 | 0.00 | 0.00 | 92 | 1018.1 |
| 20260506071017 | 12 | 213 | 0.0 | 0.0 | 0.00 | 0.00 | 0.00 | 91 | 1018.0 |
| 20260506070514 | 12 | 213 | 0.0 | 0.0 | 0.00 | 0.00 | 0.00 | 91 | 1018.3 |
| 20260506062451 | 13 | 213 | 0.0 | 1.6 | 0.00 | 0.00 | 0.00 | 90 | 1017.6 |
| 20260506061947 | 13 | 211 | 0.0 | 0.0 | 0.00 | 0.00 | 0.00 | 89 | 1017.6 |
| 20260506061444 | 13 | 211 | 0.0 | 0.0 | 0.00 | 0.00 | 0.00 | 89 | 1017.4 |
| 20260506060942 | 13 | 211 | 0.0 | 0.0 | 0.00 | 0.00 | 0.00 | 88 | 1017.5 |
| 20260506060440 | 13 | 211 | 0.0 | 0.0 | 0.00 | 0.00 | 0.00 | 88 | 1017.3 |
| 20260506051412 | 13 | 211 | 0.0 | 1.6 | 0.00 | 0.00 | 0.00 | 87 | 1017.1 |
| 20260506050909 | 13 | 211 | 0.0 | 4.8 | 0.00 | 0.00 | 0.00 | 87 | 1017.0 |
| 20260506050406 | 13 | 216 | 0.0 | 0.0 | 0.00 | 0.00 | 0.00 | 88 | 1016.9 |
| 20260506044857 | 13 | 216 | 0.0 | 0.0 | 0.00 | 0.00 | 0.00 | 88 | 1016.9 |
| 20260506044355 | 13 | 216 | 0.0 | 0.0 | 0.00 | 0.00 | 0.00 | 87 | 1016.8 |
| 20260506043851 | 13 | 216 | 0.0 | 0.0 | 0.00 | 0.00 | 0.00 | 87 | 1016.9 |
| 20260506043348 | 13 | 216 | 0.0 | 0.0 | 0.00 | 0.00 | 0.00 | 87 | 1016.6 |
| 20260506042847 | 13 | 216 | 0.0 | 0.0 | 0.00 | 0.00 | 0.00 | 87 | 1016.7 |
| 20260506042346 | 13 | 217 | 0.0 | 0.0 | 0.00 | 0.00 | 0.00 | 87 | 1016.9 |
| 20260506041844 | 13 | 218 | 0.0 | 0.0 | 0.00 | 0.00 | 0.00 | 87 | 1016.7 |
| 20260506041341 | 13 | 214 | 0.0 | 0.0 | 0.00 | 0.00 | 0.00 | 87 | 1016.7 |
| 20260506040837 | 13 | 213 | 0.0 | 1.6 | 0.00 | 0.00 | 0.00 | 87 | 1016.9 |
| 20260506040335 | 14 | 217 | 0.0 | 0.0 | 0.00 | 0.00 | 0.00 | 86 | 1016.7 |
| 20260506035831 | 14 | 218 | 0.0 | 0.0 | 0.00 | 0.00 | 0.00 | 86 | 1016.5 |
| 20260506035329 | 14 | 220 | 0.0 | 0.0 | 0.00 | 0.00 | 0.00 | 86 | 1016.5 |
| 20260506034826 | 14 | 220 | 0.0 | 0.0 | 0.00 | 0.00 | 0.00 | 85 | 1016.6 |
| 20260506034323 | 15 | 220 | 0.0 | 0.0 | 0.00 | 0.00 | 0.00 | 84 | 1016.5 |
| 20260506033820 | 15 | 220 | 0.0 | 0.0 | 0.00 | 0.00 | 0.00 | 83 | 1016.5 |